TimeEDT,TemperatureF,Dew PointF,Humidity,Sea Level PressureIn,VisibilityMPH,Wind Direction,Wind SpeedMPH,Gust SpeedMPH,PrecipitationIn,Events,Conditions,WindDirDegrees,DateUTC
12:53 AM,64.0,63.0,96,29.99,5.0,Calm,Calm,-,N/A,,Clear,0,2013-03-20 04:53:00
1:01 AM,64.4,62.6,94,29.99,1.2,Calm,Calm,-,N/A,,Clear,0,2013-03-20 05:01:00
1:03 AM,62.6,62.6,100,29.99,0.8,Calm,Calm,-,N/A,,Mist,0,2013-03-20 05:03:00
1:50 AM,62.6,62.6,100,29.99,1.2,North,5.8,-,N/A,,Scattered Clouds,350,2013-03-20 05:50:00
1:53 AM,62.1,62.1,100,29.99,1.2,NNW,3.5,-,N/A,,Scattered Clouds,340,2013-03-20 05:53:00
2:00 AM,62.6,62.6,100,29.98,1.0,North,5.8,-,N/A,,Mist,350,2013-03-20 06:00:00
2:04 AM,62.6,62.6,100,29.98,2.0,North,5.8,-,N/A,,Partly Cloudy,350,2013-03-20 06:04:00
2:12 AM,64.4,62.6,94,29.98,8.0,NNW,5.8,-,N/A,,Clear,340,2013-03-20 06:12:00
2:53 AM,64.0,63.0,96,29.96,10.0,North,3.5,-,N/A,,Clear,360,2013-03-20 06:53:00
3:27 AM,62.6,60.8,94,29.94,1.5,Calm,Calm,-,N/A,,Clear,0,2013-03-20 07:27:00
3:37 AM,62.6,62.6,100,29.94,0.8,Calm,Calm,-,N/A,,Clear,0,2013-03-20 07:37:00
3:42 AM,62.6,62.6,100,29.94,2.0,Calm,Calm,-,N/A,,Clear,0,2013-03-20 07:42:00
3:53 AM,63.0,62.1,97,29.95,1.0,Calm,Calm,-,N/A,,Clear,0,2013-03-20 07:53:00
4:00 AM,62.6,60.8,94,29.95,0.5,Calm,Calm,-,0.01,Fog,Fog,0,2013-03-20 08:00:00
4:38 AM,62.6,60.8,94,29.95,2.0,Calm,Calm,-,0.01,,Clear,0,2013-03-20 08:38:00
4:45 AM,62.6,60.8,94,29.95,10.0,Calm,Calm,-,0.01,,Clear,0,2013-03-20 08:45:00
4:53 AM,62.1,61.0,96,29.96,10.0,Calm,Calm,-,0.01,,Clear,0,2013-03-20 08:53:00
5:48 AM,60.8,60.8,100,29.95,2.0,Calm,Calm,-,N/A,,Clear,0,2013-03-20 09:48:00
5:53 AM,60.1,60.1,100,29.94,3.0,Calm,Calm,-,N/A,,Clear,0,2013-03-20 09:53:00
6:05 AM,60.8,60.8,100,29.94,1.5,Calm,Calm,-,N/A,,Clear,0,2013-03-20 10:05:00
6:15 AM,60.8,60.8,100,29.95,3.0,Calm,Calm,-,N/A,,Clear,0,2013-03-20 10:15:00
6:53 AM,60.1,59.0,96,29.97,10.0,Calm,Calm,-,N/A,,Clear,0,2013-03-20 10:53:00
7:53 AM,62.1,60.1,93,29.98,10.0,Calm,Calm,-,N/A,,Clear,0,2013-03-20 11:53:00
8:53 AM,64.9,62.1,90,30.01,10.0,Calm,Calm,-,N/A,,Clear,0,2013-03-20 12:53:00
9:53 AM,66.0,63.0,90,30.04,10.0,WNW,18.4,25.3,0.00,Rain,Light Rain,290,2013-03-20 13:53:00
10:40 AM,69.8,59.0,68,29.98,10.0,SW,21.9,26.5,0.01,Rain,Light Rain,230,2013-03-20 14:40:00
10:53 AM,68.0,59.0,73,29.96,10.0,SSW,20.7,26.5,0.01,Rain,Light Rain,210,2013-03-20 14:53:00
11:53 AM,75.0,57.9,55,29.96,10.0,West,9.2,-,0.00,,Clear,280,2013-03-20 15:53:00
12:53 PM,77.0,55.0,47,29.97,10.0,WNW,18.4,24.2,N/A,,Clear,290,2013-03-20 16:53:00
1:53 PM,75.0,57.0,53,29.95,10.0,WNW,16.1,-,N/A,,Clear,290,2013-03-20 17:53:00
2:53 PM,73.9,59.0,59,29.91,10.0,West,15.0,-,N/A,,Clear,270,2013-03-20 18:53:00
3:53 PM,73.9,57.0,55,29.88,10.0,WNW,11.5,-,N/A,,Scattered Clouds,290,2013-03-20 19:53:00
4:53 PM,71.1,57.9,63,29.85,10.0,West,4.6,-,0.00,Rain,Light Rain,270,2013-03-20 20:53:00
5:53 PM,70.0,59.0,68,29.89,10.0,WSW,9.2,-,0.00,Rain,Light Rain,240,2013-03-20 21:53:00
6:53 PM,66.9,64.0,90,29.91,10.0,WSW,9.2,-,0.01,Rain,Light Rain,240,2013-03-20 22:53:00
7:53 PM,66.0,63.0,90,29.96,6.0,NW,10.4,-,0.07,Rain,Rain,310,2013-03-20 23:53:00
8:53 PM,64.9,62.1,90,29.95,6.0,West,6.9,-,0.16,Rain,Rain,280,2013-03-21 00:53:00
9:53 PM,64.0,62.1,93,29.93,10.0,WNW,5.8,-,0.00,,Partly Cloudy,300,2013-03-21 01:53:00
10:18 PM,64.4,62.6,94,29.93,10.0,NW,8.1,-,N/A,,Mostly Cloudy,310,2013-03-21 02:18:00
10:25 PM,64.4,62.6,94,29.93,10.0,NW,9.2,-,N/A,,Overcast,310,2013-03-21 02:25:00
10:40 PM,64.4,62.6,94,29.93,10.0,WNW,8.1,-,N/A,,Overcast,300,2013-03-21 02:40:00
10:53 PM,64.0,62.1,93,29.94,10.0,WNW,5.8,-,N/A,,Mostly Cloudy,290,2013-03-21 02:53:00
11:53 PM,64.0,62.1,93,29.93,10.0,WNW,6.9,-,N/A,,Overcast,290,2013-03-21 03:53:00